TimeCST,TemperatureF,Dew PointF,Humidity,Sea Level PressureIn,VisibilityMPH,Wind Direction,Wind SpeedMPH,Gust SpeedMPH,PrecipitationIn,Events,Conditions,WindDirDegrees,DateUTC
12:52 AM,43.0,36.0,76,30.26,10.0,SE,9.2,-,N/A,,Clear,130,2013-11-04 06:52:00
1:52 AM,43.0,36.0,76,30.25,10.0,SSE,9.2,-,N/A,,Clear,150,2013-11-04 07:52:00
2:52 AM,43.0,35.1,74,30.25,10.0,SE,9.2,-,N/A,,Clear,140,2013-11-04 08:52:00
3:52 AM,44.1,35.1,71,30.25,10.0,SSE,11.5,-,N/A,,Clear,160,2013-11-04 09:52:00
4:52 AM,44.1,35.1,71,30.25,10.0,South,10.4,-,N/A,,Clear,170,2013-11-04 10:52:00
5:52 AM,44.1,35.1,71,30.24,10.0,SSE,10.4,-,N/A,,Clear,150,2013-11-04 11:52:00
6:52 AM,44.1,35.1,71,30.23,10.0,SSE,13.8,21.9,N/A,,Clear,160,2013-11-04 12:52:00
7:52 AM,45.0,36.0,71,30.23,10.0,SSE,13.8,19.6,N/A,,Clear,160,2013-11-04 13:52:00
8:52 AM,48.0,37.0,66,30.21,10.0,SSE,17.3,27.6,N/A,,Clear,160,2013-11-04 14:52:00
9:52 AM,50.0,37.0,61,30.20,10.0,South,20.7,25.3,N/A,,Clear,170,2013-11-04 15:52:00
10:52 AM,54.0,37.9,55,30.19,10.0,South,21.9,29.9,N/A,,Clear,170,2013-11-04 16:52:00
11:52 AM,54.0,37.9,55,30.15,10.0,SSE,17.3,25.3,N/A,,Clear,160,2013-11-04 17:52:00
12:52 PM,57.0,37.9,49,30.13,10.0,South,21.9,29.9,N/A,,Clear,170,2013-11-04 18:52:00
1:52 PM,55.9,39.9,55,30.13,10.0,South,19.6,25.3,N/A,,Mostly Cloudy,180,2013-11-04 19:52:00
2:52 PM,55.0,39.9,57,30.11,10.0,South,18.4,26.5,N/A,,Overcast,190,2013-11-04 20:52:00
3:52 PM,55.0,41.0,59,30.10,10.0,South,20.7,25.3,N/A,,Scattered Clouds,170,2013-11-04 21:52:00
4:52 PM,54.0,41.0,62,30.12,10.0,South,16.1,23.0,N/A,,Clear,190,2013-11-04 22:52:00
5:52 PM,53.1,42.1,66,30.14,10.0,South,12.7,-,N/A,,Overcast,180,2013-11-04 23:52:00
6:52 PM,53.1,43.0,69,30.16,10.0,South,13.8,-,N/A,,Overcast,190,2013-11-05 00:52:00
7:52 PM,53.1,43.0,69,30.17,10.0,South,12.7,-,N/A,,Overcast,190,2013-11-05 01:52:00
8:52 PM,52.0,43.0,71,30.18,10.0,SSW,8.1,-,N/A,,Overcast,200,2013-11-05 02:52:00
9:52 PM,51.1,43.0,74,30.19,10.0,South,8.1,-,N/A,,Overcast,190,2013-11-05 03:52:00
10:52 PM,51.1,43.0,74,30.19,10.0,South,9.2,-,N/A,,Overcast,190,2013-11-05 04:52:00
11:52 PM,51.1,44.1,77,30.20,10.0,SSW,5.8,-,N/A,,Overcast,200,2013-11-05 05:52:00